Wind_Speed
10 8 6 2 8 11 12 13 6 6 13 12 9 8 9 8 8 9 8 8 9 7 7 6 6 7 7 9 10 11 11 13 14 16 15 14 15 17 18 19 22 25 23
12 16 11 4 5 3 8 8 16 14 6 9 11 9 8 5 4 6 6 5 8 8 8 8 8 9 9 9 10 10 9 10 12 13 13 13 12 13 15 19 22 20 20
20 16 15 9 13 9 7 8 8 14 15 9 13 11 11 6 5 4 2 3 1 4 6 10 10 9 9 8 8 9 7 8 9 10 11 12 11 11 13 16 18 17 15
28 30 18 11 15 21 11 12 10 5 7 12 18 18 14 12 11 11 8 6 5 3 3 6 9 10 10 11 10 9 7 6 8 9 9 10 9 10 10 12 14 12 11
40 36 25 17 17 25 21 17 22 18 11 9 10 14 14 11 10 14 13 13 13 7 5 6 7 9 10 12 13 12 10 8 7 6 6 5 7 9 10 8 8 8 8
50 36 27 21 22 28 25 20 20 21 25 17 13 20 22 18 14 12 14 17 19 16 14 11 11 11 10 11 13 13 13 9 7 5 3 1 2 6 9 9 7 6 7
61 50 41 32 29 32 30 32 30 28 31 32 19 18 22 28 26 21 21 21 23 23 21 21 19 17 16 16 17 17 15 15 12 9 6 4 4 3 3 6 7 7 7
67 61 60 47 46 41 38 38 37 36 36 34 28 25 32 24 23 22 23 27 29 30 27 26 26 24 24 24 23 21 19 17 18 14 9 8 9 9 8 8 10 15 12
68 67 65 65 61 56 54 46 45 40 40 40 41 34 37 34 28 28 28 31 25 26 30 35 35 34 30 31 31 29 24 21 21 21 16 13 15 14 15 14 15 17 15
75 76 76 76 72 65 64 58 46 43 46 46 50 49 44 41 41 40 41 35 37 36 31 31 32 39 37 34 35 33 32 28 27 27 26 20 19 20 19 19 20 21 20
96 94 87 87 81 72 71 72 59 55 51 51 53 52 53 54 54 49 47 46 46 43 45 40 37 31 37 38 36 34 37 36 33 33 32 31 26 24 25 24 26 26 25
100 97 97 94 90 82 79 78 76 64 60 61 61 52 55 58 59 57 59 54 50 46 48 48 45 40 37 38 35 34 34 35 36 36 36 36 34 31 30 31 32 32 31
112 108 103 99 100 93 85 84 82 81 76 70 67 65 66 68 69 67 65 61 54 53 52 56 54 50 47 44 41 42 40 38 37 39 39 37 37 39 38 37 37 37 37
116 112 109 103 104 102 97 98 93 92 90 82 83 82 78 83 82 77 73 69 62 62 64 65 61 61 59 59 58 55 52 49 43 44 43 43 42 42 43 40 42 42 41
124 121 117 114 113 112 110 107 104 101 100 99 95 94 94 92 89 90 87 84 83 80 74 75 72 70 70 70 67 66 63 57 55 52 50 47 46 46 46 45 43 47 46
129 127 124 121 120 118 118 114 111 108 107 107 107 107 106 105 107 106 102 97 95 93 90 85 80 78 76 76 71 69 71 68 63 61 56 52 48 50 50 48 45 46 51
125 126 127 127 127 126 124 122 119 115 111 108 107 106 105 103 106 110 107 105 102 104 100 95 89 84 85 88 86 84 78 71 71 68 63 58 54 51 53 52 50 50 51
129 127 125 124 122 121 119 117 114 113 111 108 106 105 105 104 105 107 108 108 107 106 103 102 104 98 97 93 92 89 87 85 78 75 70 63 60 57 54 56 56 54 53
132 132 130 129 128 127 125 124 122 119 118 116 114 112 109 107 108 108 108 108 107 108 107 105 104 102 100 95 95 93 89 85 84 80 77 72 65 62 61 59 60 61 58
134 133 133 133 132 131 130 129 128 127 125 123 122 121 119 116 114 113 113 113 112 110 111 106 105 105 103 100 98 94 92 90 89 86 83 80 75 69 66 65 66 67 66
141 140 139 139 136 135 134 133 133 133 132 131 130 128 126 124 122 121 120 119 117 115 114 111 110 107 106 106 104 103 102 100 95 93 90 86 83 78 75 71 71 71 74
140 142 144 145 145 143 142 141 141 139 137 137 136 135 134 132 130 129 127 126 125 122 121 119 117 115 115 111 109 107 105 106 104 99 96 93 89 86 83 81 77 77 78
133 135 137 139 141 144 147 148 149 148 147 146 144 143 142 141 138 136 134 133 133 131 128 125 124 123 122 120 119 115 112 110 109 104 101 99 96 94 91 89 87 84 83
126 128 129 131 133 135 137 139 143 147 149 151 151 151 150 149 146 145 143 141 140 139 137 135 133 132 130 127 125 123 121 119 116 114 111 108 106 105 100 97 96 94 92
115 118 119 120 122 123 124 127 129 132 135 138 142 144 147 148 148 148 148 149 149 149 147 145 143 142 140 137 134 132 130 127 125 123 120 117 117 113 109 107 105 102 101
97 101 105 109 112 113 114 116 119 121 122 123 123 125 127 129 131 134 139 143 146 148 150 149 148 148 148 146 144 140 137 135 134 132 130 128 126 124 120 116 115 113 110
Wind_Direction
252 230 142 105 24 15 358 350 21 314 327 343 348 358 0 9 18 54 59 39 44 51 49 31 25 34 32 19 26 37 44 35 31 32 35 41 47 51 52 66 73 71 64
233 218 242 236 259 313 331 346 338 341 310 326 331 342 337 339 334 359 11 28 32 34 23 13 3 359 3 2 5 19 35 34 29 24 30 47 55 63 60 68 74 71 67
249 226 240 266 256 261 294 284 322 321 319 340 340 323 325 299 287 314 309 319 55 7 2 2 357 357 348 349 355 6 16 22 16 25 28 48 59 73 79 71 78 82 71
238 240 237 258 267 251 254 251 270 306 328 317 325 324 320 310 301 308 313 306 317 301 328 351 352 347 353 351 343 353 1 2 358 10 19 36 75 97 101 84 85 89 91
232 234 242 246 257 247 239 250 267 249 243 287 293 325 320 298 298 301 308 305 309 311 316 343 347 340 340 339 344 345 337 345 347 349 11 29 87 115 116 117 109 116 123
225 225 231 236 242 242 248 241 259 254 246 238 245 281 295 314 309 296 310 304 298 300 298 299 308 316 317 314 315 325 335 322 329 317 305 327 170 143 142 139 149 142 148
225 229 234 237 247 245 245 241 245 257 256 246 226 258 276 284 293 302 303 306 311 310 293 288 292 293 299 301 303 306 312 324 325 320 287 256 232 229 209 158 173 187 183
234 231 236 240 252 252 245 245 249 256 249 247 219 236 253 250 264 274 287 289 298 299 300 294 294 289 290 289 290 299 305 314 316 303 285 250 244 232 237 226 203 218 225
237 240 242 244 253 254 254 251 251 252 249 244 245 232 240 234 232 244 254 263 263 270 282 290 288 290 297 292 289 290 296 305 298 299 292 255 245 240 233 230 225 221 221
232 241 244 248 250 253 255 252 248 242 247 247 247 250 244 243 239 235 241 256 260 268 256 265 270 281 284 289 287 283 286 290 288 294 291 272 250 242 246 238 236 232 233
240 245 246 245 246 249 253 253 249 243 238 243 243 248 251 252 249 249 242 253 265 267 272 261 253 259 268 274 276 278 281 281 280 282 285 279 258 246 242 249 244 242 240
241 245 247 247 244 248 251 250 248 248 243 239 243 238 243 247 250 252 249 254 246 256 268 269 254 259 266 266 265 271 272 275 277 274 274 275 269 252 240 239 245 245 244
243 244 247 248 246 249 249 249 249 248 247 243 235 237 239 245 246 245 246 246 249 258 258 262 259 256 259 261 264 271 275 270 272 272 271 271 268 259 247 239 239 245 247
241 243 245 249 249 247 250 252 249 248 250 245 238 239 240 242 245 247 244 245 245 252 258 259 260 259 261 263 262 262 264 270 273 272 270 269 266 260 256 243 242 243 244
242 244 245 245 248 250 251 252 254 253 252 252 249 243 241 243 246 248 249 249 250 254 255 258 256 261 263 265 266 267 265 269 267 272 270 267 266 260 257 252 246 244 243
242 243 244 246 247 249 251 252 252 252 253 254 254 254 252 252 251 249 250 252 253 257 257 255 255 257 262 265 266 266 267 267 267 272 269 265 263 261 258 255 248 243 243
242 244 246 247 248 249 250 252 254 255 254 254 254 254 253 252 250 249 251 254 257 256 256 254 254 257 262 264 263 264 267 268 270 268 269 264 262 262 258 257 251 247 241
243 244 246 247 248 249 249 249 249 250 250 251 251 251 251 250 249 250 250 251 253 255 256 255 257 260 262 262 260 262 264 266 267 268 265 265 261 261 260 255 253 247 242
244 244 245 246 247 249 250 250 250 249 250 250 250 250 250 249 250 252 252 252 254 253 254 256 257 257 259 260 258 258 259 260 263 264 264 262 260 256 258 255 252 250 244
247 247 248 248 248 248 249 250 251 251 251 251 251 251 251 251 251 250 250 251 252 253 254 255 253 254 256 255 256 257 259 259 260 260 260 260 259 258 253 254 252 250 247
249 249 250 250 250 250 250 251 252 252 253 253 253 253 253 253 252 251 252 252 252 252 251 253 253 252 252 252 254 254 255 257 257 258 259 257 255 254 254 252 251 250 248
250 251 251 251 251 252 252 251 252 252 253 253 254 255 254 254 254 254 254 254 253 253 253 252 253 252 252 252 251 253 254 255 256 256 256 255 254 253 252 252 251 249 247
251 252 252 253 253 253 253 253 254 253 253 253 254 254 255 255 255 255 255 255 256 256 255 254 253 253 252 252 253 252 252 252 253 254 253 254 254 254 253 251 251 251 249
252 253 253 254 254 255 255 255 255 255 255 255 255 255 255 255 255 256 256 256 256 257 257 256 255 254 254 253 253 252 252 252 252 252 252 253 253 254 254 253 252 251 250
253 254 255 255 256 256 256 257 257 257 257 257 256 256 257 257 257 257 257 257 256 256 256 255 255 254 254 254 253 252 252 252 252 252 252 251 252 251 251 252 253 252 252
254 254 255 255 256 257 258 258 258 257 256 257 258 258 258 258 259 258 258 257 256 255 255 256 255 255 254 253 253 253 252 252 251 251 252 251 251 252 251 249 250 251 251
Height
11000 11000 11000 11001 11002 11003 11005 11006 11005 11007 11007 11008 11008 11009 11008 11008 11008 11006 11006 11007 11007 11008 11008 11007 11006 11005 11004 11004 11003 11001 10999 10997 10996 10994 10993 10991 10990 10989 10987 10984 10982 10980 10978
10997 10997 10997 10999 11000 11002 11003 11005 11005 11006 11006 11006 11007 11009 11010 11009 11010 11009 11009 11008 11007 11008 11009 11009 11009 11007 11005 11005 11004 11003 11001 11000 10998 10997 10996 10993 10992 10992 10991 10989 10987 10986 10984
10991 10994 10994 10994 10996 10998 11000 11001 11003 11005 11005 11005 11006 11008 11008 11009 11009 11010 11010 11010 11008 11008 11008 11008 11008 11008 11007 11005 11004 11003 11002 11001 11000 10999 10997 10996 10994 10994 10994 10993 10992 10992 10990
10983 10984 10986 10989 10991 10994 10996 10998 11000 11002 11004 11004 11006 11007 11006 11007 11008 11007 11007 11008 11008 11008 11008 11007 11008 11007 11006 11005 11005 11003 11002 11001 11001 11000 10999 10998 10997 10997 10996 10996 10996 10996 10995
10973 10975 10978 10982 10985 10987 10991 10993 10995 10997 10999 11001 11002 11004 11005 11003 11003 11005 11005 11006 11006 11006 11006 11006 11007 11007 11007 11005 11005 11004 11002 11001 11001 11001 11001 11000 10999 10998 10999 10999 10999 11000 10999
10961 10967 10971 10974 10978 10981 10983 10988 10991 10992 10994 10994 10996 11000 11001 11002 11001 11002 11003 11004 11005 11003 11004 11004 11005 11005 11005 11005 11004 11004 11003 11002 11001 11002 11002 11002 11000 10999 11000 11000 11001 11002 11002
10956 10959 10962 10965 10970 10973 10975 10978 10984 10986 10986 10988 10989 10992 10995 10996 10997 10997 10998 10999 11001 11001 11001 11002 11002 11003 11003 11003 11002 11002 11001 11001 11001 11001 11002 11003 11003 11002 11002 11003 11003 11004 11005
10942 10946 10950 10954 10961 10966 10968 10969 10971 10976 10980 10982 10979 10983 10986 10988 10990 10992 10992 10993 10994 10996 10998 10998 10999 10999 11000 11000 10999 10999 11000 10999 10998 10998 10999 11000 11000 11000 11000 11001 11002 11003 11004
10927 10932 10936 10943 10947 10953 10958 10961 10962 10964 10967 10971 10974 10972 10975 10979 10980 10983 10984 10986 10987 10989 10991 10992 10994 10993 10994 10994 10994 10996 10997 10998 10995 10994 10995 10997 10997 10997 10997 10998 10998 10998 10999
10911 10916 10922 10928 10934 10938 10945 10950 10953 10956 10958 10960 10962 10963 10966 10969 10969 10969 10970 10974 10977 10981 10983 10985 10986 10987 10987 10988 10987 10988 10990 10992 10991 10991 10990 10991 10992 10993 10994 10995 10994 10994 10996
10892 10898 10905 10911 10916 10923 10929 10936 10942 10945 10948 10949 10950 10952 10954 10958 10959 10960 10960 10962 10965 10970 10973 10975 10975 10977 10978 10980 10981 10980 10981 10983 10984 10985 10984 10983 10985 10986 10987 10988 10987 10987 10989
10873 10878 10885 10892 10899 10907 10913 10920 10925 10932 10935 10937 10937 10939 10940 10944 10947 10948 10950 10951 10952 10955 10960 10964 10966 10967 10968 10970 10972 10973 10973 10972 10973 10976 10977 10976 10977 10978 10979 10979 10980 10981 10981
10852 10859 10864 10872 10880 10887 10893 10900 10907 10913 10918 10922 10923 10923 10925 10926 10928 10933 10937 10939 10941 10944 10947 10950 10952 10955 10957 10959 10962 10963 10964 10964 10964 10964 10965 10966 10967 10968 10969 10970 10971 10972 10973
10829 10837 10846 10850 10856 10863 10870 10877 10885 10891 10896 10903 10907 10910 10910 10909 10912 10919 10922 10925 10925 10928 10930 10933 10937 10940 10943 10946 10949 10951 10953 10955 10955 10956 10955 10955 10956 10959 10959 10961 10961 10962 10963
10806 10814 10822 10829 10834 10838 10846 10852 10859 10866 10872 10877 10884 10888 10889 10892 10894 10899 10903 10906 10909 10911 10914 10917 10919 10923 10927 10930 10933 10934 10938 10941 10943 10944 10945 10944 10944 10945 10947 10950 10951 10952 10952
10780 10786 10794 10802 10808 10814 10819 10825 10832 10839 10844 10849 10855 10859 10864 10870 10874 10878 10881 10883 10886 10892 10894 10899 10902 10906 10909 10912 10915 10916 10919 10924 10927 10928 10930 10931 10932 10933 10933 10936 10940 10940 10941
10753 10759 10766 10773 10781 10788 10794 10799 10805 10808 10816 10820 10824 10829 10833 10843 10846 10851 10857 10862 10863 10869 10874 10877 10881 10885 10888 10891 10894 10898 10901 10905 10908 10912 10915 10916 10918 10920 10921 10922 10924 10927 10929
10724 10731 10737 10743 10750 10756 10763 10770 10776 10781 10785 10791 10798 10801 10807 10814 10818 10823 10830 10836 10840 10843 10848 10853 10857 10862 10866 10869 10873 10876 10880 10883 10888 10891 10895 10898 10901 10904 10906 10907 10909 10911 10914
10692 10699 10707 10713 10719 10725 10732 10738 10744 10751 10756 10761 10767 10772 10778 10786 10790 10794 10798 10805 10809 10814 10821 10826 10832 10836 10841 10844 10848 10853 10857 10860 10865 10869 10874 10878 10882 10886 10888 10891 10892 10896 10898
10658 10668 10674 10680 10687 10693 10699 10704 10710 10716 10722 10728 10733 10739 10746 10755 10761 10765 10768 10773 10780 10785 10791 10798 10804 10811 10815 10819 10822 10827 10831 10835 10839 10845 10851 10856 10861 10865 10868 10872 10875 10877 10880
10618 10628 10637 10645 10651 10657 10663 10669 10673 10678 10685 10690 10696 10701 10708 10716 10724 10729 10734 10740 10748 10754 10760 10766 10773 10780 10786 10790 10793 10798 10803 10807 10812 10818 10824 10829 10835 10841 10845 10849 10853 10856 10860
10577 10586 10595 10602 10609 10615 10621 10628 10634 10640 10646 10652 10656 10662 10667 10675 10683 10690 10696 10703 10708 10717 10724 10732 10738 10746 10752 10757 10763 10769 10774 10778 10782 10790 10796 10800 10807 10812 10819 10823 10828 10832 10836
10539 10547 10555 10562 10568 10573 10579 10584 10592 10598 10603 10609 10616 10620 10624 10631 10641 10649 10656 10662 10666 10675 10686 10695 10701 10707 10713 10721 10727 10734 10742 10748 10751 10759 10766 10771 10777 10781 10788 10795 10799 10805 10810
10504 10509 10516 10522 10527 10531 10536 10540 10544 10550 10557 10563 10569 10574 10581 10589 10598 10606 10614 10621 10627 10632 10641 10650 10657 10663 10672 10680 10689 10697 10705 10712 10719 10725 10733 10739 10745 10749 10756 10763 10768 10774 10781
10474 10477 10481 10485 10489 10493 10497 10499 10503 10509 10514 10519 10524 10529 10535 10542 10551 10560 10568 10574 10578 10582 10589 10598 10606 10613 10622 10631 10641 10652 10661 10670 10678 10685 10695 10703 10707 10714 10723 10729 10734 10741 10748
10446 10449 10450 10451 10453 10456 10459 10461 10463 10466 10471 10477 10485 10490 10494 10500 10507 10512 10514 10519 10524 10530 10535 10543 10553 10561 10569 10580 10591 10604 10615 10624 10631 10639 10650 10660 10667 10673 10682 10692 10699 10705 10711